Location: Alphen
(52.1351°N, 4.6549°E)
Time: 01:37:32
(UTC+00:00)

Cosmos 1763 Rocket - Pass Details

Date: 27 January 2021
Orbit: 732 x 781 km, 74.0° (Epoch: 26 February)

Event Time Altitude Azimuth Distance (km) Brightness Sun altitude
Exits shadow 04:07:13 41° 26° (NNE) 1,108 4.5 -30.7°
Drops below altitude 10° 04:10:38 10° 26° (NNE) 2,329 6.4 -30.2°
Sets 04:13:02 0° 26° (NNE) 3,266 7.2 -29.9°
